DW7061 Weather Reports


Display with metric or nautical units.
time (UTC)temp
F
wind
direction
speed
MPH
gust
MPH
rain 1hr
in
rain 24hr
in
rain mn
in
humidity
%
barometer
mb
20200328181139 47 264 1.0 2.0 0.00 0.00 0.00 44 1018.5
20200328180639 47 262 1.0 2.0 0.00 0.00 0.00 44 1018.6
20200328180139 47 236 0.0 1.0 0.00 0.00 0.00 43 1018.7
20200328175639 47 236 1.0 1.0 0.00 0.00 0.00 43 1018.8
20200328175139 47 121 0.0 2.0 0.00 0.00 0.00 44 1018.9
20200328174639 47 153 1.0 3.0 0.00 0.00 0.00 43 1019.0
20200328174139 47 240 0.0 3.0 0.00 0.00 0.00 43 1019.0
20200328173639 47 281 2.0 2.0 0.00 0.00 0.00 43 1018.9
20200328173139 47 264 1.0 3.0 0.00 0.00 0.00 43 1018.9
20200328172639 47 311 1.0 3.0 0.00 0.00 0.00 43 1018.8
20200328172139 47 256 2.0 3.0 0.00 0.00 0.00 43 1018.8
20200328171639 47 269 0.0 3.0 0.00 0.00 0.00 42 1018.7
20200328171139 47 260 0.0 1.0 0.00 0.00 0.00 44 1018.6
20200328170639 47 259 0.0 2.0 0.00 0.00 0.00 43 1018.6
20200328170139 47 242 1.0 3.0 0.00 0.00 0.00 42 1018.5
20200328165639 47 276 1.0 1.0 0.00 0.00 0.00 41 1018.5
20200328165139 47 167 1.0 2.0 0.00 0.00 0.00 41 1018.6
20200328164639 47 280 2.0 4.0 0.00 0.00 0.00 41 1018.6
20200328164139 47 257 1.0 2.0 0.00 0.00 0.00 40 1018.6
20200328163639 47 280 0.0 3.0 0.00 0.00 0.00 42 1018.6
20200328163139 47 257 3.0 4.0 0.00 0.00 0.00 41 1018.7
20200328162639 47 280 1.0 4.0 0.00 0.00 0.00 42 1018.8
20200328162139 47 264 1.0 2.0 0.00 0.00 0.00 46 1019.0
20200328161639 46 281 1.0 3.0 0.00 0.00 0.00 44 1019.1
20200328161139 46 281 3.0 3.0 0.00 0.00 0.00 45 1019.0
20200328160639 46 262 1.0 2.0 0.00 0.00 0.00 48 1018.9
20200328160139 46 249 2.0 2.0 0.00 0.00 0.00 46 1018.8
20200328155639 45 252 1.0 3.0 0.00 0.00 0.00 45 1018.8
20200328155139 45 311 0.0 3.0 0.00 0.00 0.00 49 1018.8
20200328154639 45 252 2.0 3.0 0.00 0.00 0.00 48 1018.9
20200328154139 46 253 0.0 4.0 0.00 0.00 0.00 48 1019.0
20200328153639 46 276 1.0 2.0 0.00 0.00 0.00 48 1019.1
20200328153139 46 243 1.0 3.0 0.00 0.00 0.00 47 1019.1
20200328152639 46 158 1.0 4.0 0.00 0.00 0.00 47 1019.2
20200328152139 47 283 1.0 3.0 0.00 0.00 0.00 46 1019.4
20200328151639 47 250 1.0 2.0 0.00 0.00 0.00 43 1019.2
20200328151139 47 266 1.0 3.0 0.00 0.00 0.00 42 1019.2
20200328150639 47 267 0.0 3.0 0.00 0.00 0.00 30 1019.2
20200328150140 48 267 2.0 3.0 0.00 0.00 0.00 30 1019.3
20200328145639 47 134 0.0 4.0 0.00 0.00 0.00 30 1019.3
20200328145139 47 135 1.0 3.0 0.00 0.00 0.00 29 1019.3
20200328144639 46 131 2.0 3.0 0.00 0.00 0.00 31 1019.2
20200328144139 46 176 1.0 2.0 0.00 0.00 0.00 29 1019.2
20200328143639 46 142 1.0 2.0 0.00 0.00 0.00 31 1019.1
20200328143139 46 106 1.0 1.0 0.00 0.00 0.00 32 1019.1
20200328142639 45 106 0.0 2.0 0.00 0.00 0.00 32 1019.0
20200328142139 45 79 0.0 1.0 0.00 0.00 0.00 32 1018.9
20200328141639 45 76 1.0 1.0 0.00 0.00 0.00 33 1018.9
20200328141139 44 146 1.0 2.0 0.00 0.00 0.00 33 1019.1
20200328140639 44 147 0.0 0.0 0.00 0.00 0.00 33 1019.0
20200328140139 44 147 0.0 0.0 0.00 0.00 0.00 34 1019.0
20200328135639 44 147 0.0 2.0 0.00 0.00 0.00 34 1018.8
20200328135139 44 108 0.0 1.0 0.00 0.00 0.00 34 1018.8
20200328134639 43 108 0.0 1.0 0.00 0.00 0.00 36 1018.8
20200328134139 43 66 1.0 2.0 0.00 0.00 0.00 34 1018.8
20200328133639 43 307 0.0 1.0 0.00 0.00 0.00 34 1018.8
20200328133139 43 307 0.0 2.0 0.00 0.00 0.00 34 1018.8
20200328132639 43 60 2.0 2.0 0.00 0.00 0.00 35 1018.7
20200328132139 43 60 0.0 2.0 0.00 0.00 0.00 34 1018.8
20200328131639 43 135 0.0 1.0 0.00 0.00 0.00 35 1018.5
20200328131139 43 74 1.0 2.0 0.00 0.00 0.00 34 1018.6
20200328130639 43 84 2.0 3.0 0.00 0.00 0.00 34 1018.7
20200328130139 43 63 0.0 3.0 0.00 0.00 0.00 36 1018.8
20200328125639 42 65 2.0 4.0 0.00 0.00 0.00 38 1019.0
20200328125139 42 90 1.0 3.0 0.00 0.00 0.00 39 1018.7
20200328124639 41 71 0.0 3.0 0.00 0.00 0.00 40 1018.7
20200328124139 41 115 2.0 2.0 0.00 0.00 0.00 42 1018.7
20200328123639 41 75 1.0 1.0 0.00 0.00 0.00 43 1018.7
20200328123139 40 75 0.0 3.0 0.00 0.00 0.00 42 1018.5
20200328122639 40 70 3.0 3.0 0.00 0.00 0.00 44 1018.4
20200328122139 40 88 0.0 2.0 0.00 0.00 0.00 44 1018.5
20200328121639 39 70 1.0 2.0 0.00 0.00 0.00 46 1018.4
20200328121139 39 71 0.0 2.0 0.00 0.00 0.00 50 1018.4
20200328120639 38 69 2.0 2.0 0.00 0.00 0.00 52 1018.5
20200328120139 37 132 0.0 0.0 0.00 0.00 0.00 56 1018.5
20200328115639 36 132 0.0 0.0 0.00 0.00 0.00 58 1018.4
20200328115139 36 132 0.0 1.0 0.00 0.00 0.00 59 1018.4
20200328114639 35 132 0.0 1.0 0.00 0.00 0.00 59 1018.5
20200328114139 35 139 0.0 1.0 0.00 0.00 0.00 61 1018.6
20200328113639 34 140 0.0 1.0 0.00 0.00 0.00 61 1018.6
20200328113139 34 150 0.0 0.0 0.00 0.00 0.00 62 1018.5
20200328112639 33 150 0.0 1.0 0.00 0.00 0.00 62 1018.5
20200328112139 33 82 0.0 1.0 0.00 0.00 0.00 62 1018.4
20200328111639 33 82 0.0 2.0 0.00 0.00 0.00 62 1018.3
20200328111139 33 82 1.0 1.0 0.00 0.00 0.00 62 1018.3
20200328110639 33 82 0.0 1.0 0.00 0.00 0.00 62 1018.2
20200328110139 33 82 0.0 1.0 0.00 0.00 0.00 62 1018.1
20200328105639 33 82 0.0 0.0 0.00 0.00 0.00 62 1018.4
20200328105139 33 82 0.0 0.0 0.00 0.00 0.00 62 1018.3
20200328104639 33 82 0.0 0.0 0.00 0.00 0.00 62 1018.2
20200328104139 33 82 0.0 0.0 0.00 0.00 0.00 63 1018.1
20200328103639 33 82 0.0 0.0 0.00 0.00 0.00 63 1018.0
20200328103139 33 82 0.0 0.0 0.00 0.00 0.00 62 1018.2
20200328102639 33 82 0.0 0.0 0.00 0.00 0.00 62 1018.1
20200328102139 33 82 0.0 0.0 0.00 0.00 0.00 62 1018.0
20200328101639 33 82 0.0 0.0 0.00 0.00 0.00 62 1018.0
20200328101139 33 82 0.0 0.0 0.00 0.00 0.00 63 1017.8
20200328100639 33 82 0.0 1.0 0.00 0.00 0.00 63 1017.8
20200328100139 33 82 0.0 1.0 0.00 0.00 0.00 63 1017.6
20200328095639 33 82 1.0 1.0 0.00 0.00 0.00 63 1017.6
20200328095139 33 82 1.0 1.0 0.00 0.00 0.00 63 1017.6
20200328094639 33 82 0.0 1.0 0.00 0.00 0.00 63 1017.5
20200328094139 33 82 1.0 1.0 0.00 0.00 0.00 63 1017.3
20200328093639 33 82 1.0 2.0 0.00 0.00 0.00 62 1017.0
20200328093139 34 82 2.0 2.0 0.00 0.00 0.00 62 1017.0
20200328092639 34 82 1.0 2.0 0.00 0.00 0.00 61 1016.9
20200328092139 34 82 1.0 1.0 0.00 0.00 0.00 61 1017.0
20200328091639 34 82 1.0 1.0 0.00 0.00 0.00 61 1017.1
20200328091139 34 82 1.0 1.0 0.00 0.00 0.00 60 1017.2
20200328090639 35 82 1.0 1.0 0.00 0.00 0.00 59 1017.2
20200328090139 35 82 1.0 1.0 0.00 0.00 0.00 58 1017.2
20200328085639 35 82 1.0 1.0 0.00 0.00 0.00 57 1017.0
20200328085139 36 82 0.0 1.0 0.00 0.00 0.00 57 1017.0
20200328084639 36 82 0.0 1.0 0.00 0.00 0.00 56 1016.8
20200328084139 36 82 1.0 2.0 0.00 0.00 0.00 55 1016.8
20200328083639 37 82 1.0 1.0 0.00 0.00 0.00 55 1016.8
20200328083139 37 82 1.0 2.0 0.00 0.00 0.00 55 1016.8
20200328082639 37 82 1.0 2.0 0.00 0.00 0.00 55 1016.8
20200328082139 37 82 1.0 2.0 0.00 0.00 0.00 54 1016.9
20200328081639 37 84 2.0 2.0 0.00 0.00 0.00 53 1017.0
20200328081139 37 84 1.0 2.0 0.00 0.00 0.00 52 1017.1
20200328080639 37 84 1.0 2.0 0.00 0.00 0.00 52 1017.1
20200328080139 37 85 1.0 2.0 0.00 0.00 0.00 52 1017.3
20200328075639 37 85 1.0 2.0 0.00 0.00 0.00 51 1017.2
20200328075139 37 85 1.0 2.0 0.00 0.00 0.00 51 1017.2
20200328074639 38 84 1.0 1.0 0.00 0.00 0.00 51 1017.1
20200328074139 38 85 1.0 2.0 0.00 0.00 0.00 52 1017.1
20200328073639 38 85 1.0 2.0 0.00 0.00 0.00 51 1017.3
20200328073139 38 84 1.0 2.0 0.00 0.00 0.00 51 1017.3
20200328072639 38 85 2.0 2.0 0.00 0.00 0.00 52 1017.3
20200328072139 38 84 2.0 2.0 0.00 0.00 0.00 52 1017.5
20200328071639 38 88 2.0 2.0 0.00 0.00 0.00 52 1017.5
20200328071139 38 89 2.0 2.0 0.00 0.00 0.00 53 1017.5
20200328070639 38 89 1.0 2.0 0.00 0.00 0.00 53 1017.4
20200328070139 38 77 1.0 2.0 0.00 0.00 0.00 53 1017.5
20200328065639 38 76 1.0 2.0 0.00 0.00 0.00 53 1017.4
20200328065139 38 77 1.0 2.0 0.00 0.00 0.00 53 1017.6
20200328064639 38 76 1.0 2.0 0.00 0.00 0.00 52 1017.6
20200328064139 38 77 1.0 2.0 0.00 0.00 0.00 52 1017.5
20200328063639 38 76 0.0 2.0 0.00 0.00 0.00 53 1017.5
20200328063139 38 58 1.0 2.0 0.00 0.00 0.00 53 1017.5
20200328062639 38 53 1.0 2.0 0.00 0.00 0.00 53 1017.4
20200328062139 39 76 1.0 1.0 0.00 0.00 0.00 53 1017.5
20200328061639 39 76 0.0 2.0 0.00 0.00 0.00 53 1017.4
20200328061139 39 77 0.0 2.0 0.00 0.00 0.00 53 1017.4
20200328060639 39 70 0.0 3.0 0.00 0.00 0.00 53 1017.4
20200328060139 39 71 1.0 2.0 0.00 0.00 0.00 53 1017.4
20200328055639 39 80 1.0 2.0 0.00 0.00 0.00 53 1017.3
20200328055139 39 80 1.0 2.0 0.00 0.00 0.00 53 1017.3
20200328054639 39 80 1.0 2.0 0.00 0.00 0.00 53 1017.4
20200328054139 39 80 2.0 2.0 0.00 0.00 0.00 53 1017.4
20200328053639 39 122 1.0 2.0 0.00 0.00 0.00 53 1017.5
20200328053139 39 89 1.0 2.0 0.00 0.00 0.00 53 1017.5
20200328052639 39 86 1.0 2.0 0.00 0.00 0.00 53 1017.5
20200328052139 39 105 0.0 1.0 0.00 0.00 0.00 53 1017.7
20200328051639 39 105 0.0 1.0 0.00 0.00 0.00 53 1017.7
20200328051139 39 104 1.0 1.0 0.00 0.00 0.00 52 1017.7
20200328050639 40 104 0.0 1.0 0.00 0.00 0.00 52 1017.8
20200328050139 40 105 0.0 1.0 0.00 0.00 0.00 52 1017.7
20200328045639 40 105 0.0 1.0 0.00 0.00 0.00 52 1017.6
20200328045139 40 105 0.0 1.0 0.00 0.00 0.00 52 1017.5
20200328044639 39 104 0.0 1.0 0.00 0.00 0.00 52 1017.5
20200328044139 39 104 0.0 0.0 0.00 0.00 0.00 52 1017.4
20200328043639 39 104 0.0 1.0 0.00 0.00 0.00 52 1017.4
20200328043139 39 104 0.0 1.0 0.00 0.00 0.00 52 1017.3
20200328042639 40 104 0.0 2.0 0.00 0.00 0.00 52 1017.3
20200328042139 40 88 0.0 1.0 0.00 0.00 0.00 52 1017.2
20200328041639 40 88 1.0 1.0 0.00 0.00 0.00 51 1017.1
20200328041139 40 87 0.0 1.0 0.00 0.00 0.00 51 1017.0
20200328040639 40 88 1.0 1.0 0.00 0.00 0.00 51 1016.9
20200328040139 40 88 1.0 1.0 0.00 0.00 0.00 52 1016.8
20200328035639 40 88 1.0 1.0 0.00 0.00 0.00 52 1016.8
20200328035139 40 88 1.0 1.0 0.00 0.00 0.00 52 1016.9
20200328034639 40 88 1.0 1.0 0.00 0.00 0.00 52 1017.0
20200328034139 41 88 0.0 2.0 0.00 0.00 0.00 52 1017.0
20200328033639 41 91 0.0 0.0 0.00 0.00 0.00 52 1016.9
20200328033139 41 91 0.0 1.0 0.00 0.00 0.00 52 1016.9
20200328032639 41 90 0.0 1.0 0.00 0.00 0.00 53 1016.8
20200328032139 41 90 1.0 1.0 0.00 0.00 0.00 53 1016.7
20200328031639 41 90 0.0 1.0 0.00 0.00 0.00 53 1016.5
20200328031139 41 90 0.0 0.0 0.00 0.00 0.00 53 1016.3
20200328030639 41 90 0.0 0.0 0.00 0.00 0.00 53 1016.2
20200328030139 41 90 0.0 0.0 0.00 0.00 0.00 53 1016.1
20200328025639 41 91 0.0 1.0 0.00 0.00 0.00 52 1016.0
20200328025139 42 91 1.0 2.0 0.00 0.00 0.00 51 1015.9
20200328024639 42 90 1.0 1.0 0.00 0.00 0.00 50 1016.0
20200328024139 42 90 1.0 1.0 0.00 0.00 0.00 49 1016.0
20200328023639 42 90 1.0 1.0 0.00 0.00 0.00 49 1015.8
20200328023139 43 90 1.0 1.0 0.00 0.00 0.00 47 1015.8
20200328022639 43 91 1.0 1.0 0.00 0.00 0.00 46 1015.7
20200328022139 43 91 1.0 1.0 0.00 0.00 0.00 45 1015.8
20200328021639 43 90 0.0 1.0 0.00 0.00 0.00 44 1015.6
20200328021139 43 90 1.0 2.0 0.00 0.00 0.00 43 1015.4
20200328020640 43 62 1.0 1.0 0.00 0.00 0.00 40 1015.6
20200328020139 44 46 1.0 1.0 0.00 0.00 0.00 36 1015.5
20200328015639 44 46 1.0 1.0 0.00 0.00 0.00 34 1015.4
20200328015139 44 98 1.0 2.0 0.00 0.00 0.00 32 1015.3
20200328014639 44 86 0.0 0.0 0.00 0.00 0.00 31 1015.3
20200328014139 45 86 0.0 1.0 0.00 0.00 0.00 31 1015.2
20200328013639 45 86 0.0 1.0 0.00 0.00 0.00 31 1015.1
20200328013139 45 86 0.0 2.0 0.00 0.00 0.00 30 1015.0
20200328012639 46 86 1.0 2.0 0.00 0.00 0.00 30 1015.1
20200328012139 46 100 2.0 2.0 0.00 0.00 0.00 30 1014.8
20200328011639 47 128 1.0 1.0 0.00 0.00 0.00 29 1014.7
20200328011139 47 128 0.0 0.0 0.00 0.00 0.00 29 1014.6
20200328010639 47 128 0.0 1.0 0.00 0.00 0.00 30 1014.6
20200328010140 47 129 0.0 1.0 0.00 0.00 0.00 29 1014.5
20200328005639 47 149 0.0 3.0 0.00 0.00 0.00 29 1014.3
20200328005139 47 89 1.0 2.0 0.00 0.00 0.00 28 1014.2
20200328004639 47 117 0.0 3.0 0.00 0.00 0.00 29 1014.0
20200328004139 47 141 1.0 2.0 0.00 0.00 0.00 28 1014.0
20200328003639 47 108 0.0 1.0 0.00 0.00 0.00 28 1014.0
20200328003139 47 43 0.0 0.0 0.00 0.00 0.00 27 1013.9
20200328002639 48 43 0.0 1.0 0.00 0.00 0.00 27 1013.8
20200328002139 48 99 0.0 1.0 0.00 0.00 0.00 27 1013.8
20200328001639 47 98 0.0 0.0 0.00 0.00 0.00 28 1013.7
20200328001139 48 98 0.0 0.0 0.00 0.00 0.00 27 1013.6
20200328000639 48 99 0.0 2.0 0.00 0.00 0.00 28 1013.3
20200328000139 48 99 1.0 1.0 0.00 0.00 0.00 28 1013.0
20200327235639 48 98 0.0 2.0 0.00 0.00 0.00 28 1013.0
20200327235139 49 98 0.0 3.0 0.00 0.00 0.00 28 1012.8
20200327234639 49 117 2.0 2.0 0.00 0.00 0.00 28 1012.7
20200327234139 49 85 1.0 3.0 0.00 0.00 0.00 28 1012.7
20200327233639 50 125 0.0 2.0 0.00 0.00 0.00 29 1012.8
20200327233139 50 84 2.0 2.0 0.00 0.00 0.00 27 1012.7
20200327232639 51 98 0.0 1.0 0.00 0.00 0.00 26 1012.7
20200327232139 51 131 0.0 2.0 0.00 0.00 0.00 26 1012.5
20200327231639 51 135 0.0 3.0 0.00 0.00 0.00 26 1012.4
20200327231139 52 210 0.0 5.0 0.00 0.00 0.00 26 1012.3
20200327230639 52 231 0.0 3.0 0.00 0.00 0.00 27 1012.2
20200327230139 53 268 1.0 2.0 0.00 0.00 0.00 25 1012.1
20200327225639 53 278 0.0 4.0 0.00 0.00 0.00 24 1011.9
20200327225139 53 280 3.0 6.0 0.00 0.00 0.00 25 1011.8
20200327224639 54 124 0.0 3.0 0.00 0.00 0.00 26 1011.6
20200327224139 54 315 1.0 6.0 0.00 0.00 0.00 25 1011.3
20200327223639 54 253 2.0 4.0 0.00 0.00 0.00 25 1011.0
20200327223139 54 253 2.0 3.0 0.00 0.00 0.00 26 1010.9
20200327222639 55 311 0.0 5.0 0.00 0.00 0.00 26 1010.7
20200327222139 55 300 1.0 3.0 0.00 0.00 0.00 27 1010.7
20200327221639 55 250 2.0 8.0 0.00 0.00 0.00 27 1010.6
20200327221139 56 262 1.0 4.0 0.00 0.00 0.00 27 1010.5
20200327220639 56 264 1.0 3.0 0.00 0.00 0.00 27 1010.4
20200327220139 56 323 2.0 2.0 0.00 0.00 0.00 30 1010.3
20200327215639 57 113 0.0 3.0 0.00 0.00 0.00 28 1010.3
20200327215139 57 58 2.0 4.0 0.00 0.00 0.00 27 1010.2
20200327214639 57 243 1.0 5.0 0.00 0.00 0.00 27 1010.1
20200327214139 57 276 4.0 10.0 0.00 0.00 0.00 27 1009.9
20200327213639 57 208 1.0 2.0 0.00 0.00 0.00 28 1009.8
20200327213139 57 151 2.0 5.0 0.00 0.00 0.00 27 1009.8
20200327212639 58 85 2.0 5.0 0.00 0.00 0.00 26 1009.7
20200327212139 58 110 1.0 4.0 0.00 0.00 0.00 27 1009.6
20200327211639 58 70 2.0 3.0 0.00 0.00 0.00 27 1009.6
20200327211139 59 309 1.0 5.0 0.00 0.00 0.00 26 1009.4
20200327210639 59 51 2.0 4.0 0.00 0.00 0.00 26 1009.5
20200327210139 59 13 1.0 5.0 0.00 0.00 0.00 25 1009.5
20200327205639 59 274 2.0 7.0 0.00 0.00 0.00 27 1009.5
20200327205139 59 68 2.0 7.0 0.00 0.00 0.00 26 1009.5
20200327204639 59 56 1.0 6.0 0.00 0.00 0.00 25 1009.5
20200327204139 59 60 2.0 3.0 0.00 0.00 0.00 26 1009.5
20200327203639 58 317 1.0 5.0 0.00 0.00 0.00 25 1009.4
20200327203139 59 31 1.0 7.0 0.00 0.00 0.00 25 1009.4
20200327202639 59 47 1.0 6.0 0.00 0.00 0.00 26 1009.3
20200327202139 59 18 3.0 6.0 0.00 0.00 0.00 26 1009.3
20200327201639 58 266 0.0 4.0 0.00 0.00 0.00 26 1009.2
20200327201139 58 215 1.0 4.0 0.00 0.00 0.00 26 1009.2
20200327200639 58 233 2.0 6.0 0.00 0.00 0.00 27 1009.2
20200327200139 58 16 2.0 6.0 0.00 0.00 0.00 26 1009.1
20200327195639 58 134 1.0 7.0 0.00 0.00 0.00 26 1009.1
20200327195139 58 281 2.0 7.0 0.00 0.00 0.00 26 1009.1
20200327194639 58 54 4.0 6.0 0.00 0.00 0.00 26 1009.0
20200327194139 58 52 4.0 8.0 0.00 0.00 0.00 26 1008.9
20200327193639 58 218 7.0 7.0 0.00 0.00 0.00 26 1008.9
20200327193139 58 333 1.0 7.0 0.00 0.00 0.00 26 1008.9
20200327192639 58 249 5.0 8.0 0.00 0.00 0.00 25 1008.9
20200327192139 58 27 3.0 7.0 0.00 0.00 0.00 26 1008.7
20200327191639 58 256 1.0 6.0 0.00 0.00 0.00 26 1008.6
20200327191139 58 126 1.0 9.0 0.00 0.00 0.00 27 1008.5
20200327190639 58 285 3.0 6.0 0.00 0.00 0.00 26 1008.4
20200327190139 58 350 2.0 4.0 0.00 0.00 0.00 30 1008.5
20200327185639 58 30 1.0 3.0 0.00 0.00 0.00 29 1008.6
20200327185139 58 56 2.0 6.0 0.00 0.00 0.00 28 1008.6
20200327184639 57 36 3.0 5.0 0.00 0.00 0.00 29 1008.6
20200327184139 57 46 3.0 7.0 0.00 0.00 0.00 28 1008.7
20200327183639 57 350 4.0 7.0 0.00 0.00 0.00 29 1008.7
20200327183139 57 293 2.0 7.0 0.00 0.00 0.00 31 1008.7
20200327182639 57 73 3.0 6.0 0.00 0.00 0.00 31 1008.7
20200327182139 57 1 2.0 5.0 0.00 0.00 0.00 31 1008.7
20200327181639 57 81 2.0 6.0 0.00 0.00 0.00 32 1008.6